Total_Precipitation_Accumulation
0.23 0.21 0.21 0.24 0.27 0.30 0.37 0.44 0.50 0.67 0.80 0.86 0.96 1.13 1.31 1.48 1.63 1.74 1.64 1.50 1.46 1.63 1.75 1.69 1.78 1.81 1.69 1.69 1.74 1.80 1.74 1.50 1.36 1.44 1.33 1.05 0.82 0.87 0.86 0.84 0.88 0.94 1.05
0.17 0.14 0.12 0.13 0.16 0.20 0.24 0.30 0.37 0.48 0.60 0.76 0.98 1.18 1.47 1.56 1.65 1.78 1.82 1.76 1.70 1.85 1.89 1.98 2.07 2.11 2.10 2.05 1.95 2.03 2.13 1.87 1.66 1.78 2.06 1.65 1.24 0.89 0.72 0.80 0.85 0.95 1.18
0.13 0.10 0.09 0.09 0.13 0.14 0.16 0.23 0.35 0.48 0.69 0.92 1.24 1.52 1.75 1.82 1.87 1.83 1.89 1.98 2.02 2.08 2.12 2.17 2.25 2.26 2.12 2.12 2.21 2.31 2.65 2.46 2.11 1.92 2.16 1.96 1.63 1.33 0.92 0.84 0.89 0.98 1.15
0.13 0.11 0.11 0.10 0.11 0.14 0.19 0.30 0.48 0.67 0.93 1.26 1.61 1.85 2.07 2.17 2.02 1.99 2.02 2.03 1.99 2.02 2.14 2.15 2.15 2.13 2.08 2.16 2.22 2.26 2.64 2.83 2.53 2.20 1.84 1.63 1.60 1.67 1.37 1.01 0.96 1.05 1.06
0.18 0.16 0.18 0.18 0.22 0.28 0.35 0.51 0.75 1.05 1.32 1.56 1.74 1.95 2.07 2.09 2.07 2.03 2.02 1.95 1.92 1.89 1.92 1.94 2.03 2.07 2.11 2.17 2.34 2.46 2.69 2.72 2.71 2.52 2.32 2.10 1.81 1.47 1.51 1.44 1.19 1.15 1.07
0.23 0.24 0.27 0.33 0.40 0.44 0.58 0.76 0.93 1.22 1.40 1.52 1.63 1.81 1.96 2.01 2.02 2.00 2.00 2.00 1.97 1.87 1.81 1.77 1.84 1.96 2.13 2.19 2.29 2.43 2.66 2.78 2.86 2.77 2.50 2.40 2.23 1.94 1.81 1.56 1.41 1.41 1.21
0.32 0.33 0.42 0.56 0.64 0.68 0.76 0.90 0.99 1.16 1.27 1.32 1.39 1.54 1.61 1.68 1.73 1.72 1.69 1.63 1.59 1.58 1.61 1.69 1.77 1.91 2.03 2.11 2.23 2.37 2.43 2.54 2.77 2.78 2.61 2.40 2.18 2.15 2.05 1.94 1.62 1.44 1.27
0.49 0.59 0.71 0.81 0.88 0.88 0.85 0.87 1.00 1.05 1.03 1.05 1.06 1.18 1.27 1.33 1.40 1.41 1.40 1.43 1.47 1.48 1.42 1.47 1.57 1.79 1.99 2.07 2.17 2.18 2.16 2.21 2.39 2.40 2.46 2.43 2.14 2.07 1.98 1.98 2.04 1.77 1.57
0.74 0.95 1.12 1.23 1.30 1.21 1.02 0.88 0.89 0.88 0.86 0.91 0.95 1.00 1.09 1.13 1.16 1.20 1.16 1.26 1.30 1.29 1.23 1.26 1.29 1.42 1.65 1.91 2.07 2.01 1.93 1.89 2.05 2.12 2.20 2.32 2.33 2.23 2.14 2.11 2.16 2.10 1.84
1.17 1.42 1.64 1.76 1.73 1.54 1.28 1.00 0.84 0.80 0.78 0.81 0.85 0.90 0.95 0.96 0.95 1.00 0.94 1.00 1.10 1.10 1.09 1.09 1.14 1.27 1.38 1.60 1.83 1.93 1.86 1.83 1.89 2.00 2.12 2.24 2.34 2.39 2.19 2.15 2.13 1.98 1.88
1.59 1.74 1.89 1.93 1.67 1.49 1.25 0.99 0.83 0.86 0.88 0.88 0.88 0.87 0.83 0.82 0.82 0.81 0.78 0.82 0.89 0.89 0.92 1.09 1.14 1.20 1.28 1.47 1.73 1.90 1.91 1.83 1.83 1.80 1.88 2.05 2.14 2.35 2.31 2.23 2.12 1.99 1.83
1.34 1.42 1.49 1.44 1.39 1.35 1.17 1.02 0.93 0.94 0.99 0.99 0.99 0.92 0.82 0.77 0.76 0.73 0.66 0.67 0.65 0.64 0.76 0.90 0.95 0.99 1.04 1.21 1.50 1.70 1.74 1.71 1.62 1.60 1.71 1.93 2.10 2.30 2.39 2.35 2.21 2.12 1.98
1.17 1.16 1.17 1.21 1.22 1.19 1.07 1.06 1.03 1.04 1.04 1.02 0.92 0.85 0.77 0.67 0.61 0.54 0.50 0.58 0.59 0.65 0.77 0.86 0.91 0.93 0.99 1.03 1.13 1.29 1.42 1.40 1.34 1.38 1.44 1.49 1.69 1.97 2.15 2.17 2.18 2.22 2.19
0.94 0.93 0.98 1.04 1.11 1.08 1.04 1.00 0.95 0.99 1.09 1.14 1.04 0.93 0.81 0.71 0.64 0.56 0.52 0.52 0.54 0.60 0.69 0.76 0.83 0.90 0.95 0.96 0.97 0.99 1.06 1.07 1.12 1.19 1.24 1.28 1.33 1.56 1.73 1.82 2.00 2.23 2.25
0.64 0.68 0.73 0.72 0.68 0.64 0.67 0.70 0.77 0.88 1.03 1.16 1.15 1.00 0.81 0.69 0.63 0.59 0.52 0.51 0.51 0.52 0.59 0.66 0.69 0.74 0.84 0.93 0.96 0.83 0.78 0.86 0.96 0.99 0.97 0.99 1.06 1.20 1.30 1.38 1.73 2.06 2.24
0.40 0.39 0.40 0.40 0.39 0.35 0.31 0.31 0.39 0.55 0.80 1.05 1.03 0.81 0.64 0.52 0.48 0.50 0.49 0.45 0.45 0.50 0.55 0.54 0.57 0.68 0.72 0.87 0.85 0.68 0.66 0.70 0.79 0.89 0.88 0.77 0.76 0.82 0.89 0.97 1.14 1.42 1.67
0.29 0.28 0.27 0.27 0.25 0.24 0.22 0.23 0.31 0.43 0.60 0.71 0.68 0.58 0.48 0.45 0.49 0.51 0.46 0.45 0.46 0.46 0.49 0.48 0.49 0.54 0.68 0.72 0.58 0.56 0.58 0.65 0.70 0.76 0.83 0.75 0.65 0.72 0.77 0.87 0.94 0.95 1.03
0.20 0.20 0.19 0.19 0.21 0.21 0.24 0.28 0.32 0.37 0.42 0.46 0.47 0.42 0.39 0.41 0.44 0.45 0.45 0.51 0.57 0.54 0.53 0.54 0.53 0.52 0.58 0.58 0.47 0.51 0.53 0.58 0.62 0.71 0.80 0.85 0.78 0.78 0.88 0.89 0.92 0.88 0.84
0.11 0.11 0.11 0.10 0.12 0.12 0.12 0.13 0.15 0.16 0.17 0.18 0.19 0.19 0.19 0.21 0.23 0.24 0.31 0.42 0.49 0.52 0.55 0.59 0.59 0.54 0.51 0.52 0.45 0.47 0.53 0.57 0.62 0.63 0.68 0.76 0.75 0.88 0.97 0.98 1.11 1.09 0.97
0.08 0.08 0.08 0.08 0.09 0.09 0.08 0.06 0.06 0.06 0.06 0.07 0.07 0.09 0.10 0.11 0.11 0.14 0.18 0.24 0.25 0.31 0.41 0.44 0.47 0.51 0.50 0.61 0.49 0.49 0.53 0.61 0.71 0.72 0.70 0.83 0.83 0.90 0.90 0.88 1.11 1.14 1.02
0.09 0.08 0.08 0.08 0.10 0.11 0.09 0.08 0.07 0.06 0.07 0.08 0.10 0.10 0.09 0.09 0.09 0.10 0.13 0.16 0.17 0.21 0.25 0.30 0.36 0.43 0.51 0.63 0.61 0.64 0.64 0.70 0.82 0.80 0.72 0.66 0.78 0.67 0.74 0.78 0.82 1.04 1.03
0.08 0.08 0.07 0.08 0.09 0.09 0.09 0.09 0.10 0.09 0.09 0.09 0.09 0.09 0.10 0.10 0.09 0.10 0.12 0.15 0.15 0.16 0.18 0.20 0.26 0.34 0.41 0.49 0.55 0.56 0.60 0.68 0.77 0.81 0.69 0.66 0.73 0.58 0.56 0.58 0.70 0.86 0.98
0.07 0.08 0.08 0.08 0.09 0.09 0.09 0.09 0.10 0.11 0.10 0.09 0.09 0.10 0.11 0.11 0.10 0.11 0.14 0.14 0.15 0.17 0.18 0.20 0.27 0.35 0.41 0.45 0.43 0.40 0.44 0.51 0.59 0.62 0.66 0.66 0.62 0.56 0.51 0.51 0.58 0.67 0.78
0.07 0.07 0.09 0.09 0.09 0.10 0.10 0.11 0.11 0.11 0.09 0.10 0.11 0.12 0.12 0.12 0.12 0.13 0.14 0.15 0.16 0.18 0.21 0.26 0.31 0.36 0.40 0.42 0.40 0.42 0.45 0.45 0.47 0.47 0.47 0.50 0.53 0.56 0.55 0.52 0.55 0.62 0.73
0.09 0.11 0.12 0.11 0.10 0.11 0.13 0.15 0.15 0.12 0.10 0.11 0.12 0.12 0.12 0.12 0.12 0.13 0.13 0.13 0.14 0.17 0.24 0.31 0.36 0.35 0.34 0.30 0.31 0.41 0.51 0.57 0.63 0.68 0.62 0.62 0.63 0.60 0.55 0.52 0.52 0.58 0.64
0.09 0.10 0.11 0.12 0.11 0.11 0.12 0.14 0.17 0.18 0.18 0.14 0.12 0.11 0.11 0.11 0.11 0.12 0.12 0.13 0.13 0.18 0.20 0.21 0.24 0.24 0.24 0.24 0.25 0.31 0.42 0.51 0.63 0.79 0.81 0.84 0.86 0.80 0.70 0.61 0.53 0.49 0.52